Weather History for Sivas, Turkey

Change the Weather History Date:

Tuesday, September 10, 2013

  Actual Average Record
Temperature  
Mean Temperature 57 °F -  
Max Temperature 75 °F 72 °F - ()
Min Temperature 39 °F 44 °F - ()
Degree Days  
Heating Degree Days 8    
Growing Degree Days 7 (Base 50)    
Moisture  
Dew Point 31 °F    
Average Humidity 47    
Maximum Humidity 93    
Minimum Humidity 8    
Precipitation  
Precipitation 0.00 in 0.03 in - ()
Sea Level Pressure  
Sea Level Pressure 30.20 in    
Wind  
Wind Speed 3 mph ()    
Max Wind Speed 15 mph    
Max Gust Speed -    
Visibility 9.0 miles    
Events      
T = Trace of Precipitation, MM = Missing Value Source: Averaged Metar Reports

Daily Weather History Graph

Daily Weather History Graph

Search for Another Location

Airport:

Trip Planner

Search our weather history database for the weather conditions in past years. The results will help you decide how hot, cold, wet, or windy it might be!

Date:

Astronomy

Sep. 10, 2013 Rise Set
Actual Time 6:08 AM EEST 6:49 PM EEST
Civil Twilight 5:41 AM EEST 7:16 PM EEST
Nautical Twilight 5:09 AM EEST 7:48 PM EEST
Astronomical Twilight 4:35 AM EEST 8:21 PM EEST
Moon 11:11 AM EEST (9/10) 9:36 PM EEST (9/10)
Length of Visible Light 13h 35m
Length of Day
12h 40m
Waxing Crescent, 25% of the Moon is Illuminated
Sep 10
Waxing Crescent
Sep 12
First Quarter
Sep 19
Full
Sep 27
Last Quarter
Oct 5
New

Hourly Weather History & Observations

Time (EEST) Temp. Windchill Dew Point Humidity Pressure Visibility Wind Dir Wind Speed Gust Speed Precip Events Conditions
3:50 AM 35.6 °F - 33.8 °F 93% 30.21 in - Calm Calm - N/A   Clear
4:50 AM 39.2 °F - 37.4 °F 93% 30.21 in - Calm Calm - N/A   Clear
5:50 AM 39.2 °F - 35.6 °F 87% 30.21 in - Variable 1.2 mph - N/A   Clear
6:50 AM 39.2 °F 35.0 °F 37.4 °F 93% 30.24 in - West 5.8 mph - N/A   Clear
7:50 AM 44.6 °F - 39.2 °F 81% 30.24 in - Calm Calm - N/A   Clear
8:50 AM 48.2 °F - 39.2 °F 71% 30.24 in - Variable 2.3 mph - N/A   Clear
9:00 AM 50 °F - 38 °F 54%  in 9 mi South 2.3 mph - -  
9:50 AM 51.8 °F - 37.4 °F 58% 30.24 in - West 3.5 mph - N/A   Clear
10:50 AM 55.4 °F - 35.6 °F 47% 30.24 in - Variable 2.3 mph - N/A   Clear
11:50 AM 59.0 °F - 30.2 °F 34% 30.24 in - WSW 5.8 mph - N/A   Clear
12:50 PM 62.6 °F - 28.4 °F 27% 30.21 in - NW 6.9 mph - N/A   Clear
1:50 PM 64.4 °F - 28.4 °F 26% 30.21 in - WNW 8.1 mph - N/A   Clear
2:50 PM 66.2 °F - 28.4 °F 24% 30.18 in - Variable 5.8 mph - N/A   Clear
3:00 PM 74 °F - 25 °F 8%  in 9 mi NE 3.5 mph - -   Clear
3:50 PM 68.0 °F - 30.2 °F 24% 30.18 in - North 10.4 mph - N/A   Clear
4:50 PM 66.2 °F - 19.4 °F 17% 30.18 in - North 15.0 mph - N/A   Clear
5:50 PM 64.4 °F - 19.4 °F 18% 30.18 in - NW 10.4 mph - N/A   Clear
6:50 PM 59.0 °F - 28.4 °F 31% 30.18 in - North 10.4 mph - N/A   Clear
7:50 PM 55.4 °F - 30.2 °F 38% 30.18 in - NE 4.6 mph - N/A   Clear
8:50 PM 55.4 °F - 30.2 °F 38% 30.18 in - NNW 12.7 mph - N/A   Clear
9:00 PM 61 °F - 32 °F 22%  in 9 mi SSW 1.2 mph - -  
9:50 PM 53.6 °F - 30.2 °F 41% 30.18 in - NNW 9.2 mph - N/A   Clear
10:50 PM 51.8 °F - 30.2 °F 44% 30.18 in - Variable 1.2 mph - N/A   Clear
11:50 PM 48.2 °F - 30.2 °F 50% 30.18 in - Calm Calm - N/A   Clear